NIMBUS 2 DEB, 28206

Orbit data source: Space-Track

NIMBUS 2 DEB, 28206 is space debris in SSO originally from a launch on Sun, 15 May 1966 UTC launched from the Air Force Western Test Range (AFWTR). Debris objects in space refer to the collection of defunct objects orbiting the Earth. Examples of debris include non-operational satellites, rocket bodies, and fragments generated from explosions, collisions, or faulty payload assembly.

Loading next visibility...
Identifier
28206, 1966-040U
Orbit
SSO
Country
Flag of USUS
Related business
Manufacturer
Unknown
Mission
Spacecraft
Bus & Motor
Unknown
Mass
Unknown
Launch date (UTC)
1966-05-15 (60 years ago)
Launch vehicle
Unknown
Launch site
Air Force Western Test Range (AFWTR)
Object type
Payload
Rocket body
Debris
Shape & HBR
Unknown shape, 0.1 m
Radar Cross Section
Small (<0.1 m²)

Expand to show TLE details & history
Last TLE update: 8 hours ago

TLE from 8 hours ago
0 NIMBUS 2 DEB
1 28206U 66040U   26128.18245441  .00001398  00000-0  22982-2 0  9998
2 28206 100.3747  18.7072 0047370 113.2676  52.0072 13.48867571 86600
Epoch: 2026-05-08T04:22Z
TLE epoch observation values (Epoch: 2026-05-08T04:22:44.061Z)
Latitude
14.02906°
Longitude
-90.3859°
Altitude
1,056.824 km
Speed
7.335 km/s
True Right ascension
13h 25m 15s
True Declination
13° 57' 06"
Sunlit
Object was in full shadow at epoch
Visualization orbit readout
Latitude
Unknown
Longitude
Unknown
Altitude
Unknown
Speed
Unknown
Apparent Right ascension
Unknown
Apparent Declination
Unknown
Sunlit
N/A
Visualization observer readout
Local Sidereal Time
20:17:08
Azimuth
Unknown
Elevation
Unknown
Doppler factor
Unknown
Orbital elements
Apogee altitude
1,109.066 km
Perigee altitude
1,038.467 km
Semi-major axis
7,451.903 km
Eccentricity
0.00474
Inclination
100.3747°
RAAN
18.7072°
Arg. of periapsis
113.2676°
True anomaly
52.43655°
Mean anomaly
52.0072°
Eccentric anomaly
52.22172°
Mean motion
3.37398 °/min
Orbital period
106.7 mins
BSTAR
0.0022982
Loading maneuver chart data...
Computing Atmospheric mass density...
Loading historical data...
Loading historical data...
Loading historical data...
Loading historical data...
Loading historical data...
Loading historical data...
Loading historical data...

Documentation

Showing up to 5 results
|